TELLICO Weather Reports


time (UTC)temp
C
wind
direction
speed
KPH
gust
KPH
rain 1hr
cm
rain 24hr
cm
rain mn
cm
humidity
%
barometer
mb
20260506044540 21 0 1.6 9.7 0.00 0.00 0.00 51 1011.8
20260506043038 21 204 0.0 3.2 0.00 0.00 0.00 50 1011.8
20260506041539 21 0 0.0 3.2 0.00 0.00 0.00 49 1011.7
20260506040036 21 0 0.0 8.0 0.00 0.00 0.00 49 1011.9
20260506034542 21 0 0.0 9.7 0.00 0.00 0.00 49 1011.9
20260506033039 22 138 1.6 9.7 0.00 0.00 0.00 48 1011.9
20260506031540 21 87 1.6 11.3 0.00 0.00 0.00 49 1012.1
20260506030037 21 0 1.6 6.4 0.00 0.00 0.00 50 1012.1
20260506024545 21 117 1.6 11.3 0.00 0.00 0.00 49 1012.4
20260506023041 21 0 1.6 6.4 0.00 0.00 0.00 49 1012.1
20260506021538 21 202 3.2 9.7 0.00 0.00 0.00 49 1012.1
20260506020040 21 197 0.0 6.4 0.00 0.00 0.00 50 1012.3
20260506014537 21 0 1.6 6.4 0.00 0.00 0.00 49 1011.8
20260506013038 21 0 0.0 3.2 0.00 0.00 0.00 48 1011.7
20260506011600 21 0 0.0 3.2 0.00 0.00 0.00 47 1011.4
20260506010047 22 161 0.0 6.4 0.00 0.00 0.00 47 1011.4
20260506004557 22 140 1.6 6.4 0.00 0.00 0.00 46 1011.3
20260506003039 22 156 0.0 4.8 0.00 0.00 0.00 45 1011.7
20260506001542 22 180 0.0 6.4 0.00 0.00 0.00 44 1011.8
20260506000106 22 189 0.0 6.4 0.00 0.00 0.00 43 1012.0
20260505234544 23 159 1.6 8.0 0.00 0.00 0.00 43 1011.9
20260505233037 23 211 0.0 12.9 0.00 0.00 0.00 43 1011.6
20260505231540 23 0 1.6 4.8 0.00 0.00 0.00 43 1011.4
20260505230057 23 170 0.0 12.9 0.00 0.00 0.00 44 1011.5
20260505224541 23 0 0.0 9.7 0.00 0.00 0.00 46 1011.7
20260505223040 23 0 0.0 6.4 0.00 0.00 0.00 46 1011.5
20260505221537 23 249 0.0 9.7 0.00 0.00 0.00 48 1011.5
20260505220039 23 0 0.0 4.8 0.00 0.00 0.00 50 1011.8
20260505214539 23 0 0.0 6.4 0.00 0.00 0.00 49 1011.7
20260505213039 24 288 1.6 8.0 0.00 0.00 0.00 47 1011.8
20260505211541 24 240 1.6 8.0 0.00 0.00 0.00 47 1011.9
20260505210037 25 273 1.6 8.0 0.00 0.00 0.00 46 1011.8
20260505204546 25 241 0.0 9.7 0.00 0.00 0.00 45 1012.2
20260505203052 26 164 1.6 8.0 0.00 0.00 0.00 41 1012.4
20260505201540 26 300 3.2 8.0 0.00 0.00 0.00 41 1012.7
20260505200038 25 217 1.6 6.4 0.00 0.00 0.00 42 1012.8
20260505194550 24 109 0.0 11.3 0.00 0.00 0.00 45 1012.9
20260505193038 23 0 0.0 4.8 0.00 0.00 0.00 43 1013.2
20260505191551 23 0 0.0 6.4 0.00 0.00 0.00 44 1013.5
20260505190040 24 159 1.6 6.4 0.00 0.00 0.00 44 1013.6
20260505184541 24 0 1.6 9.7 0.00 0.00 0.00 45 1013.8
20260505183040 24 133 1.6 9.7 0.00 0.00 0.00 46 1014.2
20260505181538 23 296 0.0 11.3 0.00 0.00 0.00 44 1014.5
20260505180047 23 184 1.6 6.4 0.00 0.00 0.00 45 1014.6
20260505174542 23 300 1.6 6.4 0.00 0.00 0.00 47 1014.7
20260505173037 23 165 1.6 8.0 0.00 0.00 0.00 46 1015.1
20260505171538 23 163 1.6 8.0 0.00 0.00 0.00 49 1015.3
20260505170037 23 260 0.0 8.0 0.00 0.00 0.00 51 1015.6
20260505164537 23 144 4.8 17.7 0.00 0.00 0.00 47 1015.7
20260505163042 23 184 1.6 12.9 0.00 0.00 0.00 52 1016.0
20260505161538 23 0 1.6 6.4 0.00 0.00 0.00 52 1015.9
20260505153038 22 251 0.0 9.7 0.00 0.00 0.00 56 1015.7
20260505151536 21 147 1.6 3.2 0.00 0.00 0.00 56 1015.6
20260505124543 13 0 0.0 1.6 0.00 0.00 0.00 81 1015.6
20260505123053 12 0 0.0 1.6 0.00 0.00 0.00 84 1015.6
20260505121612 11 0 0.0 0.0 0.00 0.00 0.00 85 1015.4
20260505120037 11 0 0.0 0.0 0.00 0.00 0.00 84 1015.2
20260505114540 11 0 0.0 0.0 0.00 0.00 0.00 82 1015.1
20260505113038 11 0 0.0 0.0 0.00 0.00 0.00 80 1014.9
20260505111540 11 0 0.0 0.0 0.00 0.00 0.00 78 1014.5
20260505101542 12 0 0.0 0.0 0.00 0.00 0.00 73 1014.5
20260505100046 13 0 0.0 0.0 0.00 0.00 0.00 72 1014.5
20260505094541 13 0 0.0 0.0 0.00 0.00 0.00 70 1014.4
20260505093036 14 0 0.0 0.0 0.00 0.00 0.00 69 1014.4
20260505091537 14 0 0.0 1.6 0.00 0.00 0.00 69 1014.5
20260505090053 15 0 0.0 1.6 0.00 0.00 0.00 67 1014.3
20260505084625 15 0 0.0 1.6 0.00 0.00 0.00 67 1014.2
20260505083047 15 0 0.0 1.6 0.00 0.00 0.00 67 1014.1
20260505081542 15 205 0.0 1.6 0.00 0.00 0.00 66 1014.2
20260505080045 15 0 0.0 1.6 0.00 0.00 0.00 67 1014.1
20260505074534 15 0 0.0 1.6 0.00 0.00 0.00 66 1013.9
20260505073050 15 0 0.0 1.6 0.00 0.00 0.00 65 1014.1
20260505071543 16 0 0.0 4.8 0.00 0.00 0.00 65 1014.2
20260505070038 16 0 0.0 0.0 0.00 0.00 0.00 65 1014.1
20260505064537 16 0 0.0 0.0 0.00 0.00 0.00 66 1014.3
20260505063046 16 0 0.0 0.0 0.00 0.00 0.00 64 1014.2
20260505061541 16 0 0.0 1.6 0.00 0.00 0.00 64 1014.2
20260505060039 17 0 0.0 1.6 0.00 0.00 0.00 64 1014.2
20260505054558 17 0 0.0 1.6 0.00 0.00 0.00 62 1014.2
20260505053045 17 0 0.0 1.6 0.00 0.00 0.00 61 1014.3
20260505051542 17 0 0.0 4.8 0.00 0.00 0.00 61 1014.1